Location: Batang Balui
(2.7000°N, 113.7833°E)
Time: 22:14:36
(UTC+00:00)

CZ-6A DEB - Visible Passes

Search period start: 27 May 2024 00:00
Search period end: 06 June 2024 00:00
Orbit: 690 x 896 km, 98.6° (Epoch: 26 May)

Date Brightness Start Highest point End Pass type
(mag) Time Alt. Az. Time Alt. Az. Time Alt. Az.
28 May ? 11:18:44 10° SSW 11:22:55 22° WSW 11:26:59 10° NW visible
29 May ? 10:49:14 10° S 10:54:31 47° WSW 10:59:34 10° NNW visible
29 May ? 21:44:29 10° NE 21:48:22 24° ESE 21:52:25 10° SSE visible
31 May ? 11:33:51 10° SW 11:36:48 15° WSW 11:39:41 10° WNW visible
01 Jun ? 11:03:36 10° SSW 11:08:24 32° WSW 11:13:00 10° NW visible
02 Jun ? 21:30:46 10° ENE 21:33:48 16° ESE 21:36:55 10° SE visible
04 Jun ? 11:18:13 10° SSW 11:22:15 22° WSW 11:26:08 10° NW visible
05 Jun ? 10:48:42 10° S 10:53:50 47° WSW 10:58:41 10° NNW visible
05 Jun ? 21:43:33 10° NE 21:47:36 24° ESE 21:51:49 10° SSE visible
